Terminal Aerodrome Forecast
Issued by NWS Columbia, SC

Home | Current Version | Previous Version | Text Only | Print | Product List | Glossary On
Versions: 1 2 3 4 5 6 7 8 9 10 11 12 13 14 15 16 17 18 19 20 21 22 23 24 25 26 27 28 29 30 31 32 33 34 35 36 37 38 39 40 41 42 43 44 45 46 47 48 49 50
000
FTUS42 KCAE 171000 AAB
TAFAGS
TAF AMD
KAGS 171021Z 1710/1806 VRB03KT 4SM BR BKN010
      TEMPO 1711/1713 BKN007
     FM171300 VRB03KT P6SM BKN020
     FM171500 06005KT P6SM BKN040=

USA.gov is the U.S. government's official web portal to all federal, state and local government web resources and services.